Location: *
(40.7873°S, 98.7174°E)
Time: 13:28:40
(UTC+00:00)

Aureole 1 Rocket - Visible Passes

Search period start: 26 September 2022 00:00
Search period end: 06 October 2022 00:00
Orbit: 378 x 1344 km, 73.9° (Epoch: 25 September)

Date Brightness Start Highest point End Pass type
(mag) Time Alt. Az. Time Alt. Az. Time Alt. Az.
26 Sep 4.6 12:30:51 10° S 12:37:36 53° ESE 12:44:44 13° NE visible
26 Sep 5.8 14:15:19 10° SW 14:21:36 34° W 14:27:03 16° NNW visible
27 Sep 4.6 12:21:38 10° S 12:28:29 55° ESE 12:36:28 10° NE visible
27 Sep 5.9 14:06:09 10° SW 14:12:28 33° W 14:19:33 10° NNW visible
28 Sep 4.6 12:12:24 10° S 12:19:22 56° ESE 12:27:25 10° NE visible
28 Sep 5.9 13:56:59 10° SW 14:03:19 32° W 14:10:21 10° NNW visible
29 Sep 4.6 12:03:09 10° SSW 12:10:13 58° ESE 12:18:20 10° NE visible
29 Sep 6.0 13:47:48 10° SW 13:54:09 32° W 14:01:09 10° NNW visible
30 Sep 4.6 11:53:54 10° SSW 12:01:04 60° ESE 12:09:14 10° NNE visible
30 Sep 6.1 13:38:37 10° SW 13:44:58 31° W 13:51:56 10° NNW visible
01 Oct 4.6 11:44:38 10° SSW 11:51:53 62° ESE 12:00:07 10° NNE visible
01 Oct 6.2 13:29:25 10° SW 13:35:47 30° W 13:42:41 10° NNW visible
02 Oct 6.3 13:20:12 10° SW 13:26:34 30° W 13:33:26 10° NNW visible
03 Oct 6.4 13:10:59 10° SW 13:17:20 29° W 13:24:09 10° NNW visible
04 Oct 6.5 13:01:45 10° SW 13:08:05 28° W 13:14:51 10° NNW visible
05 Oct 6.6 12:52:31 10° SW 12:58:50 28° W 13:05:31 10° NNW visible
